Location: *
(48.8780°N, 19.2358°E)
Time: 13:37:17
(UTC+00:00)

Cosmos 839 Rocket - Pass Details

Date: 18 October 2019
Orbit: 968 x 2084 km, 65.9° (Epoch: 18 November)

Event Time Altitude Azimuth Distance (km) Brightness Sun altitude
Rises 16:16:03 0° 322° (NW) 3,678 7.4 -5.3°
Reaches altitude 10° 16:18:34 10° 326° (NW) 2,720 6.7 -5.7°
Maximum altitude 16:24:43 68° 49° (NE) 1,082 4.1 -6.7°
Drops below altitude 10° 16:31:32 10° 133° (SE) 2,997 6.2 -7.8°
Sets 16:34:26 0° 136° (SE) 4,081 6.9 -8.3°
